STARLINK-34591 (64734 NORAD) Tracking and Keplerian Element Data

This shows tracking and keplerian element data for the satellite.

Feedback or suggestion? Click here.




ElementValue
Catalog64734
NameSTARLINK-34591
Epoch Orbit2748
Epoch Day353.93697772
Epoch Year2025
RAAN191.3243
Inclination53.1581
Eccentricity0.0001294
Argument of Perigee124.3728
Mean Anonmoly235.7395
Mean Motion15.30209902
Decay Rate0.00016065
L11 64734U 25144L 25353.93697772 .00016065 00000+0 55320-3 0 9993
L22 64734 53.1581 191.3243 0001294 124.3728 235.7395 15.30209902 27481



Live tracking and technical data element details for STARLINK-34591 (NORAD 64734). STARLINK-34591 can be tracked NOW for your location showing map with azimuth and elevation plus other details from your city location.







IsCatalogInMostPopularTable: catalog: 64734, numindb: 3
Update: records affected: 1



GetName: 64734 STARLINK-34591

Hit Count: updated at: Mon, 09 Feb 2026 09:13:01 GMT